This demonstration page uses our WeatherBlox Daily Observations layout. Learn more.

Left ArrowRight Arrow

Hourly Observations for May 16, 2022

Temp ( °F °C ) Dew Point ( °F °C ) Humidity (%) Winds ( mph kmh ) Pressure ( in mb ) Visibility ( mi km ) Precip ( " mm )
12:15 am 00:15 Clear 58 14.5 49 9.2 71 71 W 6 9 30.02 1017 10 16 0.00 0.00
12:35 am 00:35 Clear 57 13.9 49 9.6 75 75 W 6 9 30.02 1017 10 16 0.00 0.00
12:55 am 00:55 Clear 56 13.1 49 9.2 77 77 Calm 30.03 1017 10 16 0.00 0.00
1:15 am 01:15 Clear 57 13.8 49 9.4 75 75 Calm 30.02 1017 10 16 0.00 0.00
1:35 am 01:35 Clear 54 12.1 48 9.1 82 82 Calm 30.04 1017 10 16 0.00 0.00
1:55 am 01:55 Clear 53 11.9 48 9 83 83 Calm 30.04 1017 10 16 0.00 0.00
2:15 am 02:15 Clear 53 11.8 48 9.1 84 84 WSW 3 6 30.04 1017 10 16 0.00 0.00
2:35 am 02:35 Clear 54 12.2 49 9.5 84 84 W 7 11 30.04 1017 10 16 0.00 0.00
2:55 am 02:55 Clear 55 12.9 49 9.3 79 79 W 7 11 30.04 1017 10 16 0.00 0.00
3:15 am 03:15 Clear 56 13.6 48 9.1 74 74 W 5 7 30.03 1017 10 16 0.00 0.00
3:35 am 03:35 Clear 55 12.7 48 9 78 78 Calm 30.04 1017 10 16 0.00 0.00
3:55 am 03:55 Clear 55 12.7 48 8.7 77 77 Calm 30.04 1017 10 16 0.00 0.00
4:15 am 04:15 Clear 56 13.1 47 8.5 74 74 W 3 6 30.04 1017 10 16 0.00 0.00
4:35 am 04:35 Clear 56 13.1 47 8.5 74 74 Calm 30.04 1017 10 16 0.00 0.00
4:55 am 04:55 Clear 50 9.8 46 8 89 89 Calm 30.05 1018 10 16 0.00 0.00
5:15 am 05:15 Clear 49 9.5 47 8.1 91 91 Calm 30.05 1018 10 16 0.00 0.00
5:35 am 05:35 Clear 50 10 47 8.1 88 88 SW 3 6 30.04 1017 10 16 0.00 0.00
5:55 am 05:55 Clear 51 10.3 46 8 86 86 S 3 6 30.05 1018 10 16 0.00 0.00
6:15 am 06:15 Sunny 50 9.9 47 8.1 89 89 WSW 3 6 30.05 1018 10 16 0.00 0.00
6:35 am 06:35 Sunny 53 11.4 47 8.4 82 82 Calm 30.05 1017 10 16 0.00 0.00
6:55 am 06:55 Sunny 53 11.7 47 8.6 81 81 Calm 30.05 1018 10 16 0.00 0.00
7:15 am 07:15 Sunny 55 13 50 10 82 82 Calm 30.06 1018 10 16 0.00 0.00
7:35 am 07:35 Sunny 56 13.5 49 9.5 77 77 Calm 30.06 1018 10 16 0.00 0.00
7:55 am 07:55 Sunny 58 14.2 49 9.4 73 73 Calm 30.05 1018 10 16 0.00 0.00
8:15 am 08:15 Sunny 59 15.2 50 9.8 70 70 W 3 6 30.05 1018 10 16 0.00 0.00
8:35 am 08:35 Sunny 62 16.4 51 10.3 67 67 W 3 6 30.04 1017 10 16 0.00 0.00
8:55 am 08:55 Sunny 65 18.1 52 11 63 63 WSW 5 7 30.03 1017 10 16 0.00 0.00
9:15 am 09:15 Sunny 68 20.2 52 10.9 55 55 WSW 6 9 30.02 1017 10 16 0.00 0.00
9:35 am 09:35 Sunny 71 21.9 49 9.4 45 45 W 8 13 30.02 1017 10 16 0.00 0.00
9:55 am 09:55 Sunny 73 22.8 48 9.1 42 42 WSW 7 11 30.01 1016 10 16 0.00 0.00
10:15 am 10:15 Sunny 74 23.2 45 7.4 36 36 WSW 13 20 30.01 1016 10 16 0.00 0.00
10:35 am 10:35 Sunny 75 23.8 45 7.4 35 35 WSW 9 15 30.01 1016 10 16 0.00 0.00
10:55 am 10:55 Sunny 76 24.2 45 7.1 33 33 WSW 13 20 30.01 1016 10 16 0.00 0.00
11:15 am 11:15 Sunny 76 24.6 45 7 32 32 WNW 9 15 30.00 1016 10 16 0.00 0.00
11:35 am 11:35 Sunny 77 24.8 44 6.9 32 32 W 8 13 29.99 1016 10 16 0.00 0.00
11:55 am 11:55 Sunny 77 25.2 46 7.9 33 33 W 8 13 29.99 1016 10 16 0.00 0.00
12:15 pm 12:15 Partly Cloudy 77 25.1 45 7.2 32 32 WSW 12 19 29.98 1015 10 16 0.00 0.00
12:35 pm 12:35 Sunny 77 25 45 7.1 32 32 W 8 13 29.97 1015 10 16 0.00 0.00
12:55 pm 12:55 Partly Cloudy 79 26.1 44 6.9 29 29 SW 7 11 29.96 1015 10 16 0.00 0.00
1:15 pm 13:15 Partly Cloudy 79 26.1 44 6.7 29 29 WSW 12 19 29.95 1014 10 16 0.00 0.00
1:35 pm 13:35 Partly Cloudy 80 26.6 44 6.9 29 29 SW 6 9 29.94 1014 10 16 0.00 0.00
1:55 pm 13:55 Partly Cloudy 80 26.9 45 7.3 29 29 SW 13 20 29.93 1013 10 16 0.00 0.00
2:15 pm 14:15 Sunny 81 27.2 44 6.7 27 27 W 9 15 29.91 1013 10 16 0.00 0.00
2:35 pm 14:35 Sunny 81 27.3 44 6.6 27 27 WSW 7 11 29.91 1013 10 16 0.00 0.00
2:55 pm 14:55 Sunny 82 27.5 44 6.6 27 27 SW 10 17 29.90 1013 10 16 0.00 0.00
3:15 pm 15:15 Sunny 82 27.9 44 6.6 26 26 W 10 17 29.89 1012 10 16 0.00 0.00
3:35 pm 15:35 Sunny 82 27.8 43 6.3 26 26 SSW 10 17 29.89 1012 10 16 0.00 0.00
3:55 pm 15:55 Sunny 83 28.2 45 7 26 26 WSW 7 11 29.88 1012 10 16 0.00 0.00
4:15 pm 16:15 Sunny 83 28.4 45 7.4 27 27 SW 8 13 29.87 1012 10 16 0.00 0.00
4:35 pm 16:35 Sunny 82 27.8 43 6.3 26 26 W 3 6 29.86 1011 10 16 0.00 0.00
4:55 pm 16:55 Sunny 83 28.3 45 7.3 27 27 WSW 9 15 29.85 1011 10 16 0.00 0.00
5:15 pm 17:15 Sunny 83 28.1 45 7 26 26 SSW 12 19 29.85 1011 10 16 0.00 0.00
5:35 pm 17:35 Sunny 83 28.4 45 7.2 26 26 SW 9 15 29.84 1010 10 16 0.00 0.00
5:55 pm 17:55 Sunny 83 28.3 45 7 26 26 S 8 13 29.83 1010 10 16 0.00 0.00
6:15 pm 18:15 Sunny 83 28.1 45 7.3 27 27 SSW 6 9 29.84 1011 10 16 0.00 0.00
6:35 pm 18:35 Sunny 82 28 45 7.4 27 27 S 8 13 29.83 1010 10 16 0.00 0.00
6:55 pm 18:55 Sunny 82 27.5 46 7.8 29 29 SW 10 17 29.83 1010 10 16 0.00 0.00
7:15 pm 19:15 Sunny 81 27.2 45 7.4 29 29 SSW 6 9 29.83 1010 10 16 0.00 0.00
7:35 pm 19:35 Sunny 80 26.6 46 7.8 30 30 S 12 19 29.84 1010 10 16 0.00 0.00
7:55 pm 19:55 Sunny 78 25.3 47 8.1 34 34 S 8 13 29.85 1011 10 16 0.00 0.00
8:15 pm 20:15 Sunny 76 24.2 46 8 36 36 S 8 13 29.86 1011 10 16 0.00 0.00
8:35 pm 20:35 Sunny 72 22.2 47 8.6 42 42 S 7 11 29.87 1011 10 16 0.00 0.00
8:55 pm 20:55 Clear 73 22.9 46 8 39 39 S 9 15 29.86 1011 10 16 0.00 0.00
9:15 pm 21:15 Clear 69 20.6 48 9 47 47 S 8 13 29.87 1012 10 16 0.00 0.00
9:35 pm 21:35 Clear 68 20.1 48 9 49 49 S 7 11 29.89 1012 10 16 0.00 0.00
9:55 pm 21:55 Clear 67 19.7 49 9.2 51 51 S 8 13 29.89 1012 10 16 0.00 0.00
10:15 pm 22:15 Clear 66 18.7 49 9.6 56 56 S 6 9 29.90 1013 10 16 0.00 0.00
10:35 pm 22:35 Clear 65 18.4 49 9.6 57 57 S 7 11 29.90 1013 10 16 0.00 0.00
10:55 pm 22:55 Clear 65 18.2 49 9.5 57 57 S 7 11 29.90 1013 10 16 0.00 0.00
11:15 pm 23:15 Clear 64 18 49 9.7 59 59 S 7 11 29.90 1013 10 16 0.00 0.00
11:35 pm 23:35 Clear 64 17.9 49 9.6 59 59 S 7 11 29.91 1013 10 16 0.00 0.00
11:55 pm 23:55 Clear 64 17.5 49 9.7 60 60 S 7 11 29.91 1013 10 16 0.00 0.00

Powered by AerisWeather